Location: Unspecified
(48.7670°N, 0.0000°E)
Time: 05:07:10
(UTC+00:00)

Courier 1B - Pass Details

Date: 26 June 2019
Orbit: 962 x 1209 km, 28.3° (Epoch: 21 August)

Event Time Altitude Azimuth Distance (km) Brightness Sun altitude
Rises 18:40:10 0° 232° (SW) 3,790 11.0 11.5°
Reaches altitude 10° 18:44:25 10° 208° (SSW) 2,893 10.1 10.9°
Maximum altitude 18:47:41 14° 180° (S) 2,668 9.6 10.4°
Drops below altitude 10° 18:51:02 10° 152° (SSE) 2,980 9.6 9.9°
Sets 18:55:33 0° 128° (SE) 3,995 10.1 9.2°
